Weather History for Atwater, CA

Change the Weather History Date:

Saturday, October 5, 2013

  Actual Average (KMCE) Record (KMCE)
Temperature  
Mean Temperature 64 °F 67 °F  
Max Temperature 86 °F 83 °F 87 °F (2003)
Min Temperature 42 °F 51 °F 39 °F (2009)
Degree Days  
Heating Degree Days 1    
Month to date heating degree days  
Since 1 July heating degree days  
Cooling Degree Days 0    
Month to date cooling degree days  
Year to date cooling degree days  
Growing Degree Days 14 (Base 50)    
Moisture  
Dew Point 39 °F    
Average Humidity 61    
Maximum Humidity 93    
Minimum Humidity 12    
Precipitation  
Precipitation 0.00 in 0.01 in 0.80 in (2011)
Month to date precipitation 0.04  
Year to date precipitation 9.03  
Since 1 July precipitation 0.35  
Snow  
Snow 0.00 in - - ()
Month to date snowfall  
Since 1 July snowfall  
Since 1 September snowfall  
Snow Depth -    
Sea Level Pressure  
Sea Level Pressure 30.14 in    
Wind  
Wind Speed 1 mph (ENE)    
Max Wind Speed 6 mph    
Max Gust Speed -    
Visibility 10 miles    
Events      
T = Trace of Precipitation, MM = Missing Value Source: NWS Daily Summary

Daily Weather History Graph

Daily Weather History Graph

Search for Another Location

Airport:

Trip Planner

Search our weather history database for the weather conditions in past years. The results will help you decide how hot, cold, wet, or windy it might be!

Date:

Astronomy

Oct. 05, 2013 Rise Set
Actual Time 7:01 AM PDT 6:38 PM PDT
Civil Twilight 6:35 AM PDT 7:05 PM PDT
Nautical Twilight 6:05 AM PDT 7:35 PM PDT
Astronomical Twilight 5:34 AM PDT 8:05 PM PDT
Moon 7:44 AM PDT (10/5) 7:03 PM PDT (10/5)
Length of Visible Light 12h 29m
Length of Day
11h 37m
New Moon, 1% of the Moon is Illuminated
Oct 5
New Moon
Oct 11
First Quarter
Oct 18
Full
Oct 26
Last Quarter
Nov 3
New

Hourly Weather History & Observations

Time (PDT) Temp. Windchill Dew Point Humidity Pressure Visibility Wind Dir Wind Speed Gust Speed Precip Events Conditions
12:15 AM 50.0 °F - 41.0 °F 71% 30.11 in 9.0 mi Calm Calm - N/A   Clear
12:35 AM 51.8 °F - 41.0 °F 67% 30.11 in 10.0 mi Calm Calm - N/A   Clear
12:55 AM 51.8 °F - 39.2 °F 62% 30.12 in 10.0 mi Calm Calm - N/A   Clear
1:15 AM 48.2 °F - 37.4 °F 66% 30.12 in 10.0 mi Calm Calm - N/A   Clear
1:35 AM 48.2 °F - 39.2 °F 71% 30.13 in 10.0 mi Calm Calm - N/A   Clear
1:55 AM 48.2 °F - 42.8 °F 82% 30.13 in 10.0 mi Calm Calm - N/A   Clear
2:15 AM 46.4 °F - 42.8 °F 87% 30.13 in 10.0 mi Calm Calm - N/A   Clear
2:35 AM 48.2 °F - 44.6 °F 87% 30.14 in 10.0 mi Calm Calm - N/A   Clear
2:55 AM 46.4 °F - 44.6 °F 93% 30.13 in 10.0 mi Calm Calm - N/A   Clear
3:15 AM 46.4 °F - 42.8 °F 87% 30.13 in 10.0 mi Calm Calm - N/A   Clear
3:35 AM 44.6 °F - 42.8 °F 93% 30.13 in 10.0 mi Calm Calm - N/A   Clear
3:55 AM 44.6 °F 42.2 °F 42.8 °F 93% 30.14 in 10.0 mi SE 4.6 mph - N/A   Clear
4:15 AM 44.6 °F 42.2 °F 42.8 °F 93% 30.14 in 10.0 mi ESE 4.6 mph - N/A   Clear
4:35 AM 44.6 °F - 41.0 °F 87% 30.14 in 10.0 mi Calm Calm - N/A   Clear
4:55 AM 44.6 °F - 42.8 °F 93% 30.15 in 10.0 mi Calm Calm - N/A   Clear
5:15 AM 44.6 °F - 41.0 °F 87% 30.15 in 10.0 mi Calm Calm - N/A   Clear
5:35 AM 44.6 °F - 41.0 °F 87% 30.15 in 10.0 mi Calm Calm - N/A   Clear
5:55 AM 44.6 °F 42.2 °F 39.2 °F 81% 30.16 in 10.0 mi East 4.6 mph - N/A   Clear
6:15 AM 42.8 °F - 41.0 °F 93% 30.16 in 10.0 mi Calm Calm - N/A   Clear
6:35 AM 44.6 °F - 41.0 °F 87% 30.16 in 10.0 mi Calm Calm - N/A   Clear
6:45 AM 44.6 °F - 39.2 °F 81% 30.17 in 10.0 mi Calm Calm - N/A   Clear
6:55 AM 44.6 °F - 39.2 °F 81% 30.17 in 10.0 mi Calm Calm - N/A   Clear
7:45 AM 44.6 °F - 39.2 °F 81% 30.18 in 10.0 mi Calm Calm - N/A   Clear
8:45 AM 57.2 °F - 37.4 °F 48% 30.21 in 10.0 mi Calm Calm - N/A   Clear
9:45 AM 64.4 °F - 35.6 °F 34% 30.22 in 10.0 mi Calm Calm - N/A   Clear
10:45 AM 69.8 °F - 33.8 °F 27% 30.22 in 10.0 mi Variable 4.6 mph - N/A   Clear
11:45 AM 75.2 °F - 33.8 °F 22% 30.21 in 10.0 mi Variable 4.6 mph - N/A   Clear
12:45 PM 80.6 °F - 33.8 °F 18% 30.19 in 10.0 mi Variable 4.6 mph - N/A   Clear
1:45 PM 82.4 °F - 32.0 °F 16% 30.17 in 10.0 mi Calm Calm - N/A   Clear
2:45 PM 84.2 °F - 30.2 °F 14% 30.15 in 10.0 mi West 5.8 mph - N/A   Clear
3:45 PM 86.0 °F - 28.4 °F 12% 30.13 in 10.0 mi Variable 3.5 mph - N/A   Clear
4:50 PM 86.0 °F - 28.4 °F 12% 30.12 in 10.0 mi Variable 3.5 mph - N/A   Clear
5:45 PM 82.4 °F - 28.4 °F 14% 30.11 in 10.0 mi Variable 3.5 mph - N/A   Clear
6:45 PM 71.6 °F - 35.6 °F 27% 30.11 in 10.0 mi Variable 3.5 mph - N/A   Clear
7:45 PM 66.2 °F - 35.6 °F 32% 30.12 in 10.0 mi Variable 3.5 mph - N/A   Clear
8:45 PM 64.4 °F - 37.4 °F 37% 30.12 in 10.0 mi Variable 3.5 mph - N/A   Clear
9:15 PM 62.6 °F - 37.4 °F 39% 30.12 in 10.0 mi North 3.5 mph - N/A   Clear
9:35 PM 57.2 °F - 39.2 °F 51% 30.12 in 10.0 mi Calm Calm - N/A   Clear
9:55 PM 57.2 °F - 39.2 °F 51% 30.12 in 10.0 mi NNE 3.5 mph - N/A   Clear
10:15 PM 55.4 °F - 42.8 °F 63% 30.13 in 9.0 mi NE 3.5 mph - N/A   Clear
10:35 PM 53.6 °F - 44.6 °F 72% 30.13 in 10.0 mi Calm Calm - N/A   Clear
10:55 PM 53.6 °F - 44.6 °F 72% 30.13 in 10.0 mi Calm Calm - N/A   Clear
11:15 PM 53.6 °F - 42.8 °F 67% 30.12 in 10.0 mi ENE 3.5 mph - N/A   Clear
11:35 PM 53.6 °F - 41.0 °F 62% 30.12 in 10.0 mi Calm Calm - N/A   Clear
11:55 PM 53.6 °F - 41.0 °F 62% 30.12 in 10.0 mi Calm Calm - N/A   Clear